Location: Poughquag
(41.6090°N, 73.6820°W)
Time: 10:05:12
(UTC-04:00)

ACS3 Solar Sail - Pass Details

Date: 19 June 2024
Orbit: 992 x 1023 km, 97.4° (Epoch: 11 July)

Event Time Altitude Azimuth Distance (km) Brightness Sun altitude
Exits shadow 22:32:38 22° 171° (S) 2,016 5.9 -16.9°
Maximum altitude 22:36:51 83° 257° (WSW) 1,010 4.9 -17.4°
Drops below altitude 10° 22:43:07 10° 347° (NNW) 2,767 8.3 -18.0°
Sets 22:45:36 0° 348° (NNW) 3,719 9.2 -18.3°
